Location: Amsterdam
(30.7274°N, 84.4357°W)
Time: 00:49:17
(UTC+00:00)

Tiros 1 - Pass Details

Date: 21 February 2026
Orbit: 618 x 649 km, 48.4° (Epoch: 7 March)

Event Time Altitude Azimuth Distance (km) Brightness Sun altitude
Rises 10:49:06 0° 200° (SSW) 2,926 10.3 -18.6°
Reaches altitude 10° 10:51:43 10° 187° (S) 2,015 9.6 -18.1°
Maximum altitude 10:55:34 26° 131° (SE) 1,238 9.1 -17.2°
Drops below altitude 10° 10:59:25 10° 74° (ENE) 2,006 10.8 -16.4°
Sets 11:02:01 0° 62° (ENE) 2,910 11.6 -15.9°
